Powrót do katalogu

STARLINK-1012

AktywnyŁącznośćVLEO
NORAD 44718·PAYLOAD·🇺🇸 United States

Wystrzelony Nov 11, 2019 z Cape Canaveral Space Force Station

Loading…

Następne Przeloty (najbliższe 24 godziny)

TLE

ŚwieżeSource: CelesTrak SupGP

Epoka: Sep 14, 2026, 20:44 UTC

1 44718C 19074F   26257.86437500  .00006885  00000+0  68778-4 0  2573
2 44718  53.1503 354.8190 0003923 340.4545 272.5624 15.64951978    19

Śledź STARLINK-1012 w czasie rzeczywistym z AllMySat

Download on the App Store